Regional Weather Roundup
Issued by NWS

Home | Current Version | Previous Version | Text Only | Print | Product List | Glossary On
Versions: 1 2 3 4 5 6 7 8 9 10 11 12 13 14 15 16 17 18 19 20 21 22 23 24 25 26 27 28 29 30 31 32 33 34 35 36 37 38 39 40 41 42 43 44 45 46 47 48 49 50
000
ASUS43 KFSD 212010
RWRSD

WEATHER ROUNDUP FOR SOUTH DAKOTA
NATIONAL WEATHER SERVICE SIOUX FALLS SD
300 PM CDT MON MAY 21 2018

NOTE: "FAIR" INDICATES FEW OR NO CLOUDS BELOW 12,000 FEET WITH NO
SIGNIFICANT WEATHER AND/OR OBSTRUCTIONS TO VISIBILITY.


SDZ001>005-009-010-012>017-212100-
NORTHWEST AND NORTH CENTRAL SOUTH DAKOTA

CITY           SKY/WX    TMP DP  RH WIND       PRES   REMARKS
BUFFALO          N/A     74  48  39 S10       29.86F
FAITH            N/A     70  50  49 SE10      29.94F
MOBRIDGE       SUNNY     70  52  52 SE7       29.94F
$$

SDZ012>016-024>037-041>051-057-063-072>074-212100-
SOUTHWEST AND SOUTH CENTRAL SOUTH DAKOTA

CITY           SKY/WX    TMP DP  RH WIND       PRES   REMARKS
RAPID CTY ARPT SUNNY     71  54  54 SE15      29.92F
PIERRE         SUNNY     73  45  36 MISG      29.94F
CUSTER         SUNNY     68  41  37 SW8       30.00F
ELLSWORTH AFB  SUNNY     72  55  54 S14       29.92
PHILIP         SUNNY     73  50  44 VRB7      29.92F
PINE RIDGE     MOSUNNY   73  54  51 SE10      29.94F
SPEARFISH      FAIR      70  50  49 NE9       29.95F
WINNER         FAIR      73  46  38 VRB3      29.97F
$$

SDZ004>011-016>023-039-040-212100-
NORTHEAST SOUTH DAKOTA

CITY           SKY/WX    TMP DP  RH WIND       PRES   REMARKS
ABERDEEN       CLOUDY    70  54  56 VRB3      29.98F
WATERTOWN      CLOUDY    60  57  89 S6        30.00F
BROOKINGS      CLOUDY    61  56  83 SW3       30.01F
SISSETON         N/A     67  56  67 SE12      29.99F
$$

SDZ017-020-022-023-036>040-048>070-212100-
SOUTHEAST SOUTH DAKOTA

CITY           SKY/WX    TMP DP  RH WIND       PRES   REMARKS
SIOUX FALLS    CLOUDY    64  58  80 NW3       30.00F
HURON          SUNNY     67  56  67 E7        29.98F
CHAMBERLAIN    SUNNY     73  52  48 CALM      29.96F
MITCHELL       MOSUNNY   69  57  65 E6        29.99S
YANKTON        MOSUNNY   68  55  63 CALM      29.99F
$$

ABBREVIATIONS USED IN REMARKS
   TC - TEMPERATURE IN CELSIUS
  WCI - WIND CHILL INDEX
   HX - HEAT INDEX
  VSB - VISIBILITY




USA.gov is the U.S. government's official web portal to all federal, state and local government web resources and services.